GW7564 Weather Reports


time (UTC)temp
C
wind
direction
speed
KPH
gust
KPH
rain 1hr
cm
rain 24hr
cm
rain mn
cm
humidity
%
barometer
mb
20260906091028 23 2 3.2 6.4 0.00 0.00 0.00 91 1015.5
20260906090022 23 336 1.6 3.2 0.00 0.00 0.00 91 1015.4
20260906085028 23 329 1.6 4.8 0.00 0.00 0.00 91 1015.3
20260906084023 23 7 3.2 8.0 0.00 0.00 0.00 92 1015.3
20260906083029 22 5 1.6 6.4 0.00 0.00 0.00 92 1015.2
20260906082044 22 354 1.6 6.4 0.00 0.00 0.00 92 1015.1
20260906081019 23 22 3.2 6.4 0.00 0.00 0.00 92 1015.2
20260906080024 23 340 1.6 4.8 0.00 0.00 0.00 92 1015.3
20260906075019 23 3 1.6 6.4 0.00 0.00 0.00 92 1015.3
20260906074024 23 7 3.2 6.4 0.00 0.00 0.00 92 1015.1
20260906073020 23 18 1.6 4.8 0.00 0.00 0.00 92 1015.3
20260906072045 23 22 1.6 6.4 0.00 0.00 0.00 92 1015.3
20260906071020 23 347 3.2 6.4 0.00 0.00 0.00 92 1015.4
20260906070025 23 353 1.6 3.2 0.00 0.00 0.00 92 1015.3
20260906065020 23 336 1.6 6.4 0.00 0.00 0.00 92 1015.3
20260906064026 23 353 1.6 4.8 0.00 0.00 0.00 91 1015.4
20260906063021 23 353 0.0 3.2 0.00 0.00 0.00 90 1015.4
20260906062027 23 2 0.0 4.8 0.00 0.00 0.00 90 1015.5
20260906061041 23 43 1.6 6.4 0.00 0.00 0.00 90 1015.6
20260906060027 23 349 0.0 4.8 0.00 0.00 0.00 89 1015.4
20260906055022 23 0.0 0.0 0.00 0.00 0.00 89 1015.4
20260906054027 23 329 0.0 4.8 0.00 0.00 0.00 89 1015.4
20260906053022 23 2 1.6 4.8 0.00 0.00 0.00 88 1015.5
20260906052028 23 333 0.0 3.2 0.00 0.00 0.00 88 1015.5
20260906051023 24 32 0.0 4.8 0.00 0.00 0.00 87 1015.3
20260906050029 24 328 1.6 6.4 0.00 0.00 0.00 87 1015.2
20260906045026 24 359 0.0 6.4 0.00 0.00 0.00 87 1015.1
20260906044039 24 340 0.0 3.2 0.00 0.00 0.00 87 1015.0
20260906043027 24 0.0 0.0 0.00 0.00 0.00 86 1014.8
20260906042100 25 0.0 0.0 0.00 0.00 0.00 85 1014.8
20260906041047 25 0.0 1.6 0.00 0.00 0.00 84 1014.8
20260906040019 25 354 1.6 4.8 0.00 0.00 0.00 82 1014.8
20260906035026 26 360 1.6 4.8 0.00 0.00 0.00 82 1014.7
20260906034021 26 18 1.6 6.4 0.00 0.00 0.00 82 1014.7
20260906033026 26 10 1.6 6.4 0.00 0.00 0.00 81 1014.7
20260906032021 26 7 3.2 6.4 0.00 0.00 0.00 81 1014.8
20260906031027 26 310 1.6 3.2 0.00 0.00 0.00 80 1014.8
20260906030021 26 299 0.0 3.2 0.00 0.00 0.00 80 1014.6
20260906025026 26 343 1.6 3.2 0.00 0.00 0.00 79 1014.6
20260906024021 26 352 1.6 4.8 0.00 0.00 0.00 79 1014.5
20260906023027 27 351 3.2 4.8 0.00 0.00 0.00 78 1014.4
20260906022022 27 325 1.6 4.8 0.00 0.00 0.00 77 1014.2
20260906021027 27 336 1.6 6.4 0.00 0.00 0.00 77 1014.0
20260906020023 27 332 3.2 6.4 0.00 0.00 0.00 76 1014.2
20260906015029 27 346 3.2 4.8 0.00 0.00 0.00 76 1014.0
20260906014023 27 321 1.6 4.8 0.00 0.00 0.00 78 1013.7
20260906013019 27 329 1.6 4.8 0.00 0.00 0.00 81 1013.5
20260906012024 27 0.0 0.0 0.00 0.00 0.00 83 1013.3
20260906011020 27 0.0 0.0 0.00 0.00 0.00 83 1013.3
20260906010025 27 0.0 0.0 0.00 0.00 0.00 82 1013.1
20260906005020 28 0.0 0.0 0.00 0.00 0.00 80 1013.1
20260906004025 28 0.0 0.0 0.00 0.00 0.00 78 1013.2
20260906003021 28 0.0 0.0 0.00 0.00 0.00 77 1013.2
20260906002106 28 0.0 0.0 0.00 0.00 0.00 76 1013.3
20260906001021 29 0.0 0.0 0.00 0.00 0.00 73 1013.4
20260906000027 30 0.0 0.0 0.00 0.00 0.00 71 1013.5
20260905235022 30 0.0 0.0 0.00 0.00 0.00 69 1013.5
20260905234027 31 0.0 0.0 0.00 0.00 0.00 67 1013.5
20260905233023 31 324 0.0 3.2 0.00 0.00 0.00 66 1013.4
20260905232028 31 334 0.0 1.6 0.00 0.00 0.00 65 1013.4
20260905231023 31 331 1.6 3.2 0.00 0.00 0.00 64 1013.2
20260905230029 32 334 1.6 3.2 0.00 0.00 0.00 62 1013.2
20260905225027 32 323 3.2 4.8 0.00 0.00 0.00 62 1013.2
20260905224019 32 339 3.2 6.4 0.00 0.00 0.00 61 1013.2
20260905223026 32 327 1.6 3.2 0.00 0.00 0.00 62 1013.0
20260905222020 32 340 3.2 6.4 0.00 0.00 0.00 61 1013.0
20260905221055 32 346 1.6 6.4 0.00 0.00 0.00 60 1012.9
20260905220020 32 350 3.2 6.4 0.00 0.00 0.00 59 1012.8
20260905215026 33 331 1.6 3.2 0.00 0.00 0.00 58 1013.1
20260905214041 33 337 1.6 4.8 0.00 0.00 0.00 59 1013.2
20260905213027 33 332 3.2 6.4 0.00 0.00 0.00 58 1012.9
20260905212022 34 328 0.0 3.2 0.00 0.00 0.00 54 1013.0
20260905211047 34 325 1.6 3.2 0.00 0.00 0.00 56 1013.1
20260905205028 34 319 3.2 4.8 0.00 0.00 0.00 54 1013.3
20260905204023 34 334 3.2 6.4 0.00 0.00 0.00 53 1013.4
20260905203049 35 333 3.2 6.4 0.00 0.00 0.00 53 1013.7
20260905202124 35 337 3.2 8.0 0.00 0.00 0.00 52 1013.7
20260905201019 35 329 3.2 8.0 0.00 0.00 0.00 52 1013.8
20260905200025 35 314 3.2 8.0 0.00 0.00 0.00 52 1013.8
20260905195042 35 325 3.2 4.8 0.00 0.00 0.00 52 1013.7
20260905194026 35 354 3.2 9.7 0.00 0.00 0.00 53 1013.9
20260905193051 36 330 3.2 4.8 0.00 0.00 0.00 50 1013.9
20260905192047 36 316 1.6 4.8 0.00 0.00 0.00 49 1014.0
20260905191021 35 346 3.2 9.7 0.00 0.00 0.00 54 1014.1
20260905190027 34 334 3.2 6.4 0.00 0.00 0.00 55 1014.4
20260905185033 35 228 3.2 6.4 0.00 0.00 0.00 50 1014.5
20260905184028 35 344 4.8 4.8 0.00 0.00 0.00 49 1014.7
20260905183023 35 269 1.6 4.8 0.00 0.00 0.00 51 1014.9
20260905182028 34 308 3.2 6.4 0.00 0.00 0.00 53 1014.9
20260905181026 35 308 1.6 3.2 0.00 0.00 0.00 51 1015.0
20260905180029 33 286 4.8 8.0 0.00 0.00 0.00 51 1015.1
20260905175238 33 3.2 4.8 0.00 0.00 0.00 54 1015.2
20260905174020 33 278 3.2 6.4 0.00 0.00 0.00 51 1015.3
20260905173847 33 275 1.6 4.8 0.00 0.00 0.00 55 1015.3
20260905172021 33 228 3.2 4.8 0.00 0.00 0.00 56 1015.4
20260905171027 32 276 1.6 6.4 0.00 0.00 0.00 55 1015.5
20260905170021 33 318 1.6 3.2 0.00 0.00 0.00 55 1015.8
20260905165027 32 250 3.2 6.4 0.00 0.00 0.00 54 1016.0
20260905164022 31 290 3.2 6.4 0.00 0.00 0.00 58 1016.1
20260905163028 31 344 3.2 6.4 0.00 0.00 0.00 59 1016.1
20260905162023 31 270 1.6 6.4 0.00 0.00 0.00 58 1015.9
20260905161028 31 254 3.2 6.4 0.00 0.00 0.00 58 1016.0
20260905160023 31 293 1.6 4.8 0.00 0.00 0.00 56 1016.1
20260905155039 30 260 3.2 9.7 0.00 0.00 0.00 58 1016.3
20260905154024 30 333 3.2 6.4 0.00 0.00 0.00 58 1016.5
20260905153019 29 256 4.8 8.0 0.00 0.00 0.00 59 1016.4
20260905152025 29 261 4.8 9.7 0.00 0.00 0.00 58 1016.3
20260905151020 28 260 4.8 8.0 0.00 0.00 0.00 60 1016.3
20260905150026 28 354 4.8 11.3 0.00 0.00 0.00 61 1016.2
20260905145021 28 211 3.2 9.7 0.00 0.00 0.00 64 1016.3
20260905144027 28 296 4.8 6.4 0.00 0.00 0.00 64 1016.6
20260905143021 27 310 6.4 11.3 0.00 0.00 0.00 64 1016.6
20260905142027 27 324 6.4 14.5 0.00 0.00 0.00 65 1016.7
20260905141022 27 4 6.4 12.9 0.00 0.00 0.00 67 1016.5
20260905140028 27 297 4.8 11.3 0.00 0.00 0.00 68 1016.6
20260905135023 26 263 6.4 11.3 0.00 0.00 0.00 71 1016.7
20260905134049 26 269 4.8 11.3 0.00 0.00 0.00 73 1016.8
20260905133026 26 316 4.8 11.3 0.00 0.00 0.00 74 1016.7
20260905132019 26 267 6.4 12.9 0.00 0.00 0.00 77 1016.8
20260905131026 25 316 3.2 9.7 0.00 0.00 0.00 81 1016.8
20260905130019 25 330 4.8 9.7 0.00 0.00 0.00 81 1016.8
20260905125027 25 331 3.2 6.4 0.00 0.00 0.00 81 1016.8
20260905124020 25 354 4.8 9.7 0.00 0.00 0.00 82 1016.4
20260905123026 24 12 4.8 9.7 0.00 0.00 0.00 89 1016.5
20260905122021 23 0.0 0.0 0.00 0.00 0.00 93 1015.7
20260905121026 23 0.0 0.0 0.00 0.00 0.00 93 1015.7
20260905120041 23 0.0 0.0 0.00 0.00 0.00 93 1015.5
20260905115027 23 0.0 0.0 0.00 0.00 0.00 93 1015.4
20260905114022 23 0.0 0.0 0.00 0.00 0.00 92 1015.3
20260905113027 23 0.0 0.0 0.00 0.00 0.00 92 1015.3
20260905112022 23 0.0 0.0 0.00 0.00 0.00 92 1015.2
20260905111027 23 0.0 0.0 0.00 0.00 0.00 93 1015.0
20260905110022 23 0.0 0.0 0.00 0.00 0.00 92 1015.0
20260905105028 23 0.0 0.0 0.00 0.00 0.00 92 1015.0
20260905104023 23 0.0 0.0 0.00 0.00 0.00 92 1015.1
20260905103028 23 0.0 0.0 0.00 0.00 0.00 92 1015.2
20260905102023 23 0.0 0.0 0.00 0.00 0.00 91 1015.3
20260905101019 23 0.0 0.0 0.00 0.00 0.00 91 1015.2
20260905100024 23 0.0 0.0 0.00 0.00 0.00 91 1015.1
20260905095019 23 0.0 0.0 0.00 0.00 0.00 91 1015.1
20260905094023 23 0.0 0.0 0.00 0.00 0.00 91 1015.0
20260905093039 23 0.0 0.0 0.00 0.00 0.00 92 1015.0
20260905092025 23 0.0 0.0 0.00 0.00 0.00 92 1014.9